Regional Weather Roundup
Issued by NWS Cleveland, OH

Home | Current Version | Previous Version | Graphics & Text | Print | Product List | Glossary On
Versions: 1 2 3 4 5 6 7 8 9 10 11 12 13 14 15 16 17 18 19 20 21 22 23 24 25 26 27 28 29 30 31 32 33 34 35 36 37 38 39 40 41 42 43 44 45 46 47 48 49 50
000
ASUS41 KCLE 252110
RWRCLE
OHIO REGIONAL WEATHER ROUNDUP
NATIONAL WEATHER SERVICE WILMINGTON, OH
500 PM EDT SAT OCT 25 2014

NOTE: "FAIR" INDICATES FEW OR NO CLOUDS BELOW 12,000 FEET WITH NO
SIGNIFICANT WEATHER AND/OR OBSTRUCTIONS TO VISIBILITY.

OHZ001>008-015>018-024>027-034-035-043-044-252200-
   NORTHWEST OHIO

CITY           SKY/WX    TMP DP  RH WIND       PRES   REMARKS
DEFIANCE       SUNNY     70  41  34 W10G21    29.83S
FINDLAY        SUNNY     71  42  35 W17       29.81S
TOLEDO EXPRESS SUNNY     69  38  32 W17G38    29.79S
TOLEDO METCALF SUNNY     69  43  38 W17G30    29.79S
LIMA           SUNNY     73  45  36 W18G26    29.84F
$$

OHZ009>014-019>023-028>033-038-089-252200-
   NORTHEAST OHIO

CITY           SKY/WX    TMP DP  RH WIND       PRES   REMARKS
CLE-HOPKINS    SUNNY     67  52  58 W12       29.77F
CLE-LAKEFRONT  SUNNY     61  54  77 W14       29.74F
CUY CO. ARPT   SUNNY     64  55  72 W12G21    29.76F
LORAIN-ELYRIA  LGT RAIN  70  49  47 W15G24    29.76F
ASHTABULA      SUNNY     62  53  72 W15G22    29.74F
AKRON-CANTON   MOSUNNY   70  50  49 W15G29    29.77S
WOOSTER        SUNNY     72  49  44 W20G26    29.78F
MANSFIELD      SUNNY     70  50  49 W16G30    29.80S
YOUNGSTOWN     MOSUNNY   68  51  54 W16G24    29.73F
$$

OHZ042-051>053-060>062-070>072-077>081-252200-
  SOUTHWEST OHIO

CITY           SKY/WX    TMP DP  RH WIND       PRES   REMARKS
CINC-COVINGTON MOSUNNY   74  53  48 W12       29.92S
CINC-LUNKEN    SUNNY     73  56  54 W13       29.92R
HAMILTON       SUNNY     75  55  49 W8G17     29.91S
DAYTON         MOSUNNY   75  49  39 W15G24    29.89S
WRIGHT-PAT AFB SUNNY     74  51  44 W10       29.87F
DAYTON GENERAL SUNNY     73  54  51 W10       29.89S
WILMINGTON     LGT RAIN  70  54  56 W15       29.90R
$$

OHZ036-037-039>041-045>050-054>059-063>069-073>076-082>088-252200-
  CENTRAL AND SOUTHEAST OHIO

CITY           SKY/WX    TMP DP  RH WIND       PRES   REMARKS
COLUMBUS       MOSUNNY   71  53  52 SW12G21   29.84S
OSU AIRPORT    SUNNY     72  52  49 W15       29.83F
BOLTON FIELD   SUNNY     72  55  56 W15       29.86F
RICKENBACK AFB SUNNY     70  54  57 SW16      29.85S
NEWARK         SUNNY     71  54  54 SW15G21   29.83S
MARION         SUNNY     72  47  40 W17G24    29.82S
LANCASTER      SUNNY     70  54  56 W9        29.86S
ZANESVILLE     SUNNY     68  53  58 W16G23    29.83F
NEW PHILLY     SUNNY     70  53  54 W8        29.79F
$$



USA.gov is the U.S. government's official web portal to all federal, state and local government web resources and services.